Weather in Paygarma

Russia / Republic of Mordovia     54°04′58″N   44°50′20″E
temp.,
°C
wind,
m/s
gust,
m/s
humid.,
%
clouds,
%
prec.,
mm/h
press.,
hPa
HPBL,
m
28 september, tue
tue2800:00+4ne6996100 0.3 1019753
03:00+5ne61089100 0.3 1021709
06:00+4ne61087100 0.0 1023775
09:00+4ne61085100 0.1 1025820
12:00+7ene6864100 0.0 10261206
15:00+8ne675115 0.0 10271346
18:00+6nne376223 0.0 1028185
21:00+4nne387234 0.0 1030175
29 september, wed
wed2900:00+3nne3576100 0.0 103099
03:00+2nne368035 0.0 1031118
06:00+1nne36847 0.0 1032127
09:00+5nne466420 0.0 1032448
12:00+9nne455144 0.0 10321196
15:00+9nne454663 0.0 10311333
18:00+6nne336074 0.0 103239
21:00+4nne22656 0.0 103215
30 september, thu
thu3000:00+3nne22695 0.0 103315
03:00+3n22745 0.0 103323
06:00+2n227910 0.0 103421
09:00+6n236596 0.0 1034264
12:00+9n22565 0.0 1034803
15:00+11nw335340 0.0 10331264
18:00+8nw356979 0.0 1033135
21:00+6nw33845 0.0 103444
1 october, fri
fri100:00+7wnw2383100 0.0 1034103
03:00+7wnw3686100 0.0 1033191
06:00+7wnw3789100 0.0 1033240
09:00+8wnw478794 0.1 1033271
12:00+13nw457090 0.0 1033912
15:00+12nw3570100 0.0 1032346
18:00+11wnw3577100 0.0 1032128
21:00+11nw3481100 0.0 1033113
2 october, sat
sat200:00+11wnw2380100 0.0 103378
03:00+10nw2381100 0.0 103381
06:00+10nw2384100 0.0 103380
09:00+11nw2379100 0.0 1034211
12:00+13nw2269100 0.0 1034521
15:00+14wnw226699 0.0 1033595
18:00+12w227499 0.0 103445
21:00+12w1175100 0.0 103420